Location: Coupvray
(48.8929°N, 2.7967°E)
Time: 20:51:44
(UTC+00:00)

Cosmos 724 - Pass Details

Date: 28 October 2020
Orbit: 851 x 943 km, 65.6° (Epoch: 01 December)

Event Time Altitude Azimuth Distance (km) Brightness Sun altitude
Exits shadow 01:39:05 13° 22° (NNE) 2,375 7.0 -45.8°
Drops below altitude 10° 01:39:55 10° 27° (NNE) 2,609 7.2 -45.7°
Sets 01:42:57 0° 41° (NE) 3,569 8.2 -45.4°
